Weather History for KLLJ - April, 2013

Change the Weather History Date:

Sunday, April 28, 2013

  Actual Average Record
Temperature  
Mean Temperature 52 °F 46 °F  
Max Temperature 67 °F 61 °F 82 °F (1987)
Min Temperature 37 °F 32 °F 18 °F (1984)
Degree Days  
Heating Degree Days 13 19  
Month to date heating degree days 634 610  
Since 1 July heating degree days 7234 7555  
Cooling Degree Days 0 0  
Month to date cooling degree days 0 0  
Year to date cooling degree days 0 0  
Moisture  
Dew Point 19 °F    
Average Humidity 33    
Maximum Humidity 54    
Minimum Humidity 12    
Precipitation  
Precipitation 0.00 in 0.03 in 0.53 in (1943)
Month to date precipitation 0.03 0.75  
Year to date precipitation 0.48 2.59  
Sea Level Pressure  
Sea Level Pressure 29.91 in    
Wind  
Wind Speed 8 mph (WNW)    
Max Wind Speed 22 mph    
Max Gust Speed 30 mph    
Visibility 10 miles    
Events      
T = Trace of Precipitation, MM = Missing Value Source: NWS Daily Summary

Daily Weather History Graph

Daily Weather History Graph

Search for Another Location

Airport or City:

Trip Planner

Search our weather history database for the weather conditions in past years. The results will help you decide how hot, cold, wet, or windy it might be!

Date:

Astronomy

Apr. 28, 2013 Rise Set
Actual Time 6:31 AM MDT 8:38 PM MDT
Civil Twilight 5:59 AM MDT 9:09 PM MDT
Nautical Twilight 5:20 AM MDT 9:49 PM MDT
Astronomical Twilight 4:37 AM MDT 10:32 PM MDT
Moon No Moon Rise 8:47 AM MDT (4/28)
Length of Visible Light 15h 10m
Length of Day
14h 06m
Waning Gibbous, 88% of the Moon is Illuminated
Apr 28
Waning Gibbous
May 2
Last Quarter
May 9
New
May 17
First Quarter
May 24
Full

Hourly Weather History & Observations

Time (MDT) Temp. Windchill Dew Point Humidity Pressure Visibility Wind Dir Wind Speed Gust Speed Precip Events Conditions
12:55 AM 48.9 °F - 21.9 °F 35% 29.94 in 10.0 mi East 3.5 mph - N/A   Clear
1:55 AM 46.0 °F 43.9 °F 19.0 °F 34% 29.93 in 10.0 mi Variable 4.6 mph - N/A   Mostly Cloudy
2:55 AM 45.0 °F - 19.0 °F 36% 29.92 in 10.0 mi Calm Calm - N/A   Clear
3:55 AM 39.9 °F - 19.0 °F 43% 29.93 in 10.0 mi Calm Calm - N/A   Clear
4:55 AM 37.9 °F 32.7 °F 19.9 °F 48% 29.94 in 10.0 mi West 6.9 mph - N/A   Partly Cloudy
5:55 AM 48.0 °F - 25.0 °F 41% 29.92 in 10.0 mi NW 5.8 mph - N/A   Overcast
7:55 AM 48.9 °F - 32.0 °F 52% 29.98 in 10.0 mi WNW 6.9 mph - N/A   Overcast
8:55 AM 52.0 °F - 30.0 °F 43% 29.96 in 10.0 mi NNE 3.5 mph - N/A   Scattered Clouds
9:55 AM 52.0 °F - 30.9 °F 45% 29.99 in 10.0 mi NNE 8.1 mph - N/A   Overcast
10:55 AM 54.0 °F - 30.0 °F 40% 29.97 in 10.0 mi Calm Calm - N/A   Mostly Cloudy
11:55 AM 55.9 °F - 30.0 °F 37% 29.95 in 10.0 mi Variable 4.6 mph - N/A   Mostly Cloudy
12:55 PM 60.1 °F - 24.1 °F 25% 29.92 in 10.0 mi West 12.7 mph 19.6 mph N/A   Scattered Clouds
1:55 PM 63.0 °F - 19.9 °F 19% 29.90 in 10.0 mi WNW 13.8 mph 26.5 mph N/A   Clear
2:55 PM 64.0 °F - 16.0 °F 16% 29.88 in 10.0 mi WNW 12.7 mph 19.6 mph N/A   Clear
3:55 PM 64.0 °F - 14.0 °F 14% 29.87 in 10.0 mi Variable 4.6 mph 24.2 mph N/A   Scattered Clouds
4:55 PM 64.0 °F - 10.9 °F 13% 29.87 in 10.0 mi West 16.1 mph 23.0 mph N/A   Clear
5:55 PM 63.0 °F - 10.0 °F 13% 29.83 in 10.0 mi WSW 16.1 mph 26.5 mph N/A   Partly Cloudy
6:55 PM 61.0 °F - 12.0 °F 15% 29.85 in 10.0 mi WNW 13.8 mph - N/A   Clear
7:55 PM 55.9 °F - 10.0 °F 16% 29.87 in 10.0 mi West 18.4 mph 25.3 mph N/A   Clear
8:55 PM 53.1 °F - 8.1 °F 16% 29.88 in 10.0 mi West 15.0 mph - N/A   Clear
9:55 PM 52.0 °F - 12.9 °F 21% 29.91 in 10.0 mi West 8.1 mph - N/A   Clear
10:55 PM 46.0 °F 44.8 °F 12.0 °F 25% 29.91 in 10.0 mi SW 3.5 mph - N/A   Clear